Location: Casco Millpond
(44.5581°N, 87.6111°W)
Time: 20:48:27
(UTC+00:00)

Cosmos 2218 Rocket - Pass Details

Date: 16 January 2026
Orbit: 955 x 1005 km, 82.9° (Epoch: 10 February)

Event Time Altitude Azimuth Distance (km) Brightness Sun altitude
Rises 22:59:52 0° 355° (N) 3,744 6.8 -4.3°
Reaches altitude 10° 23:02:30 10° 0° (N) 2,790 6.2 -4.7°
Maximum altitude 23:08:46 53° 77° (ENE) 1,215 4.2 -5.8°
Drops below altitude 10° 23:14:57 10° 154° (SSE) 2,758 6.3 -6.8°
Sets 23:17:32 0° 159° (SSE) 3,698 7.1 -7.2°
